Tracking 20092 objects as of 14-Dec-2019
HD Live streaming from Space Station
objects crossing your sky now

COSMOS 2251 DEB

Track COSMOS 2251 DEB now!
10-day predictions


NORAD ID: 35434
Int'l Code: 1993-036AKC
Perigee: 767.1 km
Apogee: 904.7 km
Inclination: 74.0 °
Period: 101.5 minutes
Semi major axis: 7206 km
RCS: 0.0109 m2 (small)
Launch date: June 16, 1993
Source: Commonwealth of Independent States (former USSR) (CIS)
Launch site: PLESETSK MISSILE AND SPACE COMPLEX (PKMTR)

Note: This is SATELLITE DEBRIS
aabbcc
Your satellite tracking list
Your tracking list is empty




NASA's NSSDC Master Catalog

Two Line Element Set (TLE):
1 35434U 93036AKC 19347.90525405 +.00000191 +00000-0 +98525-4 0  9998
2 35434 074.0410 177.6854 0095492 052.9134 308.0691 14.18991513549971
Source of the keplerian elements: AFSPC